Regional Weather Roundup
Issued by NWS San Diego, CA

Home | Current Version | Previous Version | Text Only | Print | Product List | Glossary On
Versions: 1 2 3 4 5 6 7 8 9 10 11 12 13 14 15 16 17 18 19 20 21 22 23 24 25 26 27 28 29 30 31 32 33 34 35 36 37 38 39 40 41 42 43 44 45 46 47 48 49 50
000
ASUS46 KSGX 010610
RWRSGX

SAN DIEGO HOURLY WEATHER ROUNDUP
NATIONAL WEATHER SERVICE SAN DIEGO CA
1100 PM PDT TUE SEP 30 2014

NOTE: "FAIR" INDICATES FEW OR NO CLOUDS BELOW 12,000 FEET WITH NO
SIGNIFICANT WEATHER AND/OR OBSTRUCTIONS TO VISIBILITY.

CAZ042-043-060-061-PZZ750-775-010700-

GREATER SAN DIEGO AREA

CITY           SKY/WX    TMP DP  RH WIND       PRES   REMARKS
LINDBERGH FLD  PTCLDY    71  65  81 S5        29.80F
POINT LOMA       N/A     68  65  89 SW7         N/A
NATIONAL CITY    N/A     70  66  87 CALM      29.80S
CHULA VISTA      N/A     66  64  90 CALM      29.73S
IMPERIAL BEACH PTCLDY    62  60  93 S5        29.79F
BROWN FIELD    CLEAR     64  61  90 CALM      29.80S
MIRAMAR MCAS   PTCLDY    63  56  78 E3        29.79F
MONTGOMERY FLD CLEAR     68  63  84 CALM      29.80S

$$

NORTH SAN DIEGO COUNTY

CITY           SKY/WX    TMP DP  RH WIND       PRES   REMARKS
CAMP PENDLETON PTCLDY    69  61  75 CALM      29.79S
OCEANSIDE AP   CLEAR     63  61  93 CALM      29.78S
OCEANSIDE HBR    N/A     69  66  90 CALM      29.81S
VISTA            N/A     64  59  85 CALM      29.77S
CARLSBAD       CLEAR     68  63  84 CALM      29.78S
DEL MAR          N/A     66  65  96 CALM      29.81S
FALLBROOK        N/A     65  65 100 CALM      29.79S
ESCONDIDO        N/A     67  59  75 CALM      29.81R
SAN MARCOS       N/A     65  60  83 CALM      29.77S
POWAY            N/A     63  56  79 CALM      29.80S

$$

EAST SAN DIEGO COUNTY

CITY           SKY/WX    TMP DP  RH WIND       PRES   REMARKS
RAMONA         CLEAR     58  49  72 CALM      29.82S
SANTEE LAKES     N/A     63  57  81 CALM      29.81S
LA MESA          N/A     68  65  90 CALM      29.73F
JAMUL            N/A     62  57  82 CALM      29.78F
MT. LAGUNA OBS   N/A     55  33  44 W2        29.60F
CAMPO            N/A     55  47  74 NE6       29.84F

$$

ORANGE COUNTY AND THE LOS ANGELES BASIN

CITY           SKY/WX    TMP DP  RH WIND       PRES   REMARKS
JOHN WAYNE AP  PTCLDY    71  64  78 S6        29.77S
LAGUNA BEACH     N/A    N/A N/A N/A S1        29.74S
LAKE FOREST FR   N/A     66  53  63 CALM      29.68S
SANTA ANA        N/A     68  63  83 CALM      29.73S
HUNTINGTON BCH   N/A     67  65  93 SW1       29.80S
LOS ALAMITOS   FAIR      65  62  89 S5        29.78R
FULLERTON      CLEAR     70  58  65 CALM      29.77R
LONG BEACH     CLEAR     69  62  78 CALM      29.77S
L.A. AP        CLEAR     67  63  87 S6        29.77S
L.A. DOWNTOWN  CLEAR     68  61  78 CALM      29.77S

$$

THE INLAND EMPIRE

CITY           SKY/WX    TMP DP  RH WIND       PRES   REMARKS
CORONA         CLEAR     64  53  67 CALM      29.79R
CHINO          CLEAR     65  57  75 CALM      29.79S
ONTARIO        CLEAR     70  53  54 CALM      29.79R
RIVERSIDE AP   CLEAR     71  55  56 CALM      29.79S
RIV CYN CREST    N/A     70  60  70 S1        29.77S
MORENO VALLEY    N/A     69  52  55 CALM        N/A
MARCH ARB      CLEAR     67  53  59 S1        29.82R
HORSETHIEF CYN   N/A     67  48  49 CALM      29.80S
PERRIS           N/A     67  57  69 S3        29.79S
MENIFEE          N/A     68  58  70 SW1       29.87S
HEMET EAST       N/A     66  45  45 CALM      29.78S
FRENCH VALLEY  FAIR      64  54  68 CALM      29.82S
TEMECULA         N/A     66  58  76 E1        29.79R

$$

SAN BERNARDINO AND RIVERSIDE COUNTY MOUNTAINS

CITY           SKY/WX    TMP DP  RH WIND       PRES   REMARKS
BIG BEAR AP    CLEAR     41  28  60 CALM      30.05F
PINE COVE        N/A     54  33  45 CALM      29.70F

$$

SOUTHERN DESERT INCLUDING THE COACHELLA VALLEY

CITY           SKY/WX    TMP DP  RH WIND       PRES   REMARKS
PALM SPRINGS   CLEAR     85  44  23 NW7       29.72S
THOUSAND PALMS   N/A     78  48  34 NW3       29.67S
PALM DESERT      N/A     77  50  39 CALM        N/A
THERMAL        CLEAR     71  50  47 CALM      29.66S
BLYTHE         CLEAR     77  39  25 SW3       29.69F
IMPERIAL AP    CLEAR     81  48  31 SW8       29.67F
EL CENTRO NAS  CLEAR     81  46  29 SW7       29.67F
YUMA AZ        CLEAR     79  48  33 SE12      29.70F

$$

UPPER DESERT

CITY           SKY/WX    TMP DP  RH WIND       PRES   REMARKS
VICTORVILLE AP CLEAR     66  37  34 SW7       29.85S
HESPERIA         N/A     66  40  37 CALM      29.87R
APPLE VALLEY     N/A     69  38  32 CALM      29.94S
PALMDALE       CLEAR     68  37  32 W13       29.84S
LANCASTER      CLEAR     68  37  32 W13       29.83S
EDWARDS AFB    CLEAR     67  44  43 SW14      29.79F
DAGGETT        CLEAR     75  40  28 W12       29.78S
29 PALMS N     CLEAR     75  43  31 W6        29.84S
NEEDLES        CLEAR     80  36  20 SW9       29.72R

$$

REGIONAL REPORTS

CITY           SKY/WX    TMP DP  RH WIND       PRES   REMARKS
SANTA BARBARA  CLEAR     63  59  87 CALM      29.74F
SANDBERG       CLEAR     61  44  53 N17G25    29.95S
MT. WILSON       N/A     57  37  47 S2          N/A
LAS VEGAS NV   CLEAR     74  34  23 S12       29.72F
PHOENIX AZ     CLEAR     76  51  41 E8        29.75S
TIJUANA        CLEAR     68  59  73 N5        29.82F
ENSENADA NW      N/A     67  32  27 CALM      29.78S

$$

OFFSHORE ISLANDS

CITY           SKY/WX    TMP DP  RH WIND       PRES   REMARKS
CATALINA ARPT  CLEAR     68  43  40 W6        29.82F
SAN NICOLAS IS CLEAR    N/A N/A N/A W21       29.78F

$$

MARINE AND OFFSHORE BUOY REPORTS

STATION/POSITION SKY/WX   TEMP    WIND        PRES    SWELL
                          AIR SEA DIR/SP/G            HT/PER/DIR
                          (F)     (DEG/KT/KT) (MB)    (FT/S/D)
TANNER BANKS               65 69  320/ 17/ 21 1009.4R   5/310/ 8
S CLEMENTE BASIN           69 72  290/ 10/ 12 1008.5F   3/180/13
SAN NICOLAS IS.               65                N/A     3/300/13
SO. S. ROSA ISLA           62 63  310/ 23/ 29 1007.8F   5/12
W. S. BARBARA CH           61 62  320/ 19/ 25 1007.7F
M. S. BARBARA CH           66 66  290/ 12/ 14 1007.6
S. MONICA BASIN            67 71  280/  4/  6 1007.5S   5/270/ 6
S PEDRO CHANNEL               70                N/A     2/160/12
DANA POINT                    70                N/A     2/170/12
CMP PENDLETON NS              68                N/A     2/230/17
OCEANSIDE OFFSHR              69                N/A     2/210/17
TORREY PINES OTR              73                N/A     2/240/13
LA JOLLA 1                 69 71   80/  3/  3 1008.6F
MISSION BAY BUOY              72                N/A     2/230/17
SAN DIEGO BAY                 74              1009.3R
POINT LOMA SOUTH              72                N/A     2/230/17

$$



USA.gov is the U.S. government's official web portal to all federal, state and local government web resources and services.